www.pogodaiklimat.ru

Погода и климат >> Архив погоды >> Бразилия >> Баия >> Макажуба


ПОГОДА в Макажубе

  • Прогноз погоды в Макажубе
  • Монитор погоды в Макажубе

АРХИВ ПОГОДЫ в Макажубе

Время (UTC), дата Ветер
(напр.,м/с)
 
Видим.   Явления Облачность Т
(С)
Тd
(С)
f
(%)
Тe
(С)
Тes
(С)
Комфортность P
(гПа)
Po
(гПа)
Тmin
(С)
Tmax
(С)
R
(мм)
R24
(мм)
S
(см)
01 16.04 З 2
{3}
н/о н/о +24.0 +20.2 79 +30 +30 очень
душно
1014.1 975.3
02 16.04 ЮЗ 1
{3}
н/о н/о +23.1 +20.2 84 +30 +30 очень
душно
1014.4 975.5
03 16.04 штиль 0
{2}
н/о н/о +22.1 +19.6 86 +28 +28 душно 1014.2 975.2
04 16.04 ЮЗ 1
{1}
н/о н/о +21.7 +19.7 88 +27 +27 душно 1013.7 974.7
05 16.04 З 1
{1}
н/о н/о +21.8 +19.8 88 +27 +27 душно 1013.3 974.3
06 16.04 СЗ 1
{2}
н/о н/о +22.1 +20.2 89 +28 +28 душно 1013.1 974.1
07 16.04 штиль 0
{1}
н/о н/о +22.9 +20.8 88 +30 +30 очень
душно
1012.8 973.9
08 16.04 штиль 0
{1}
н/о н/о +22.3 +20.1 87 +28 +28 душно 1012.9 974.0
09 16.04 ЮЗ 1
{1}
н/о н/о +22.1 +20.1 88 +28 +28 душно 1013.9 974.9
10 16.04 ЮЗ 1
{2}
н/о н/о +23.2 +20.7 86 +31 +31 очень
душно
1014.4 975.5
11 16.04 ЮЗ 1
{2}
н/о н/о +24.0 +20.7 82 +30 +30 очень
душно
1015.0 976.2
12 16.04 Ю 1
{2}
н/о н/о +25.5 +20.9 76 +32 +32 очень
душно
1015.3 976.7
13 16.04 Ю 2
{3}
н/о н/о +26.9 +20.6 68 +33 +33 очень
душно
1014.9 976.5
14 16.04 ЮЗ 1
{3}
н/о н/о +27.5 +20.6 66 +34 +34 очень
душно
1013.8 975.5
15 16.04 ЮВ 2
{3}
н/о н/о +28.0 +20.4 63 +34 +34 очень
душно
1012.7 974.5
16 16.04 ЮЗ 1
{3}
н/о н/о +28.7 +20.9 63 +36 +36 очень
душно
1011.6 973.5
17 16.04 Ю 1
{2}
н/о н/о +28.5 +20.7 63 +36 +36 очень
душно
1010.5 972.4
18 16.04 Ю 1
{3}
н/о н/о +28.7 +20.7 62 +36 +36 очень
душно
1010.0 972.0
19 16.04 ЮВ 2
{3}
н/о н/о +28.5 +21.4 65 +36 +36 очень
душно
1010.0 972.0
20 16.04 З 1
{5}
н/о н/о +26.8 +20.8 70 +34 +34 очень
душно
1010.1 971.8
21 16.04 ЮЗ 2
{3}
н/о н/о +25.5 +21.2 77 +32 +32 очень
душно
1010.6 972.2
22 16.04 СЗ 1
{4}
н/о н/о +24.3 +22.0 87 +31 +31 очень
душно
1011.8 973.2 4
23 16.04 ЮЗ 1
{2}
н/о н/о +24.4 +21.9 86 +31 +31 очень
душно
1012.3 973.7
00 17.04 З 1
{2}
н/о н/о +24.2 +21.9 87 +31 +31 очень
душно
1013.0 974.3
01 17.04 Ю 1
{1}
н/о н/о +24.0 +21.7 87 +31 +31 очень
душно
1013.1 974.4
02 17.04 ЮЗ 1
{1}
н/о н/о +23.8 +21.5 87 +30 +30 очень
душно
1013.4 974.6
03 17.04 З 1
{2}
н/о н/о +23.3 +21.2 88 +31 +31 очень
душно
1013.5 974.7
04 17.04 штиль 0
{1}
н/о н/о +23.4 +21.5 89 +32 +32 очень
душно
1012.7 973.9
05 17.04 штиль 0
{1}
н/о н/о +22.8 +21.0 90 +30 +30 очень
душно
1012.2 973.4 0.2
06 17.04 штиль 0
{1}
н/о н/о +23.2 +21.4 90 +31 +31 очень
душно
1011.8 973.0
07 17.04 Ю 1
{2}
н/о н/о +23.2 +21.4 90 +31 +31 очень
душно
1011.8 973.0
08 17.04 штиль 0
{1}
н/о н/о +23.1 +21.3 90 +31 +31 очень
душно
1011.8 973.0
09 17.04 ЮЗ 1
{1}
н/о н/о +23.1 +21.3 90 +31 +31 очень
душно
1012.2 973.4
10 17.04 ЮВ 1
{1}
н/о н/о +23.6 +21.7 89 +30 +30 очень
душно
1012.7 973.9
11 17.04 В 1
{2}
н/о н/о +24.6 +21.9 85 +32 +32 очень
душно
1012.7 974.1
12 17.04 З 1
{2}
н/о н/о +25.5 +22.0 81 +33 +33 очень
душно
1012.8 974.3
13 17.04 штиль 0
{2}
н/о н/о +26.2 +21.3 74 +33 +33 очень
душно
1012.7 974.3
14 17.04 штиль 0
{1}
н/о н/о +27.3 +21.7 72 +35 +35 очень
душно
1012.4 974.1
15 17.04 Ю 1
{2}
н/о н/о +27.5 +21.1 68 +35 +35 очень
душно
1011.6 973.4
16 17.04 ЮЗ 1
{2}
н/о н/о +28.8 +21.1 63 +36 +36 очень
душно
1010.6 972.6
17 17.04 ЮЗ 1
{2}
н/о н/о +29.6 +21.2 61 +37 +37 очень
душно
1009.8 971.9
18 17.04 ЮЗ 1
{2}
н/о н/о +30.6 +21.3 58 +39 +39 очень
душно
1008.7 971.0
19 17.04 Ю 2
{3}
н/о н/о +29.9 +21.0 59 +37 +37 очень
душно
1008.6 970.8
20 17.04 Ю 1
{2}
н/о н/о +29.0 +21.5 64 +37 +37 очень
душно
1009.0 971.1
21 17.04 З 1
{2}
н/о н/о +27.2 +21.4 71 +35 +35 очень
душно
1009.4 971.2
22 17.04 штиль 0
{1}
н/о н/о +24.6 +21.2 81 +31 +31 очень
душно
1010.2 971.7
23 17.04 З 1
{1}
н/о н/о +25.0 +21.9 83 +32 +32 очень
душно
1011.4 972.9
00 18.04 З 2
{3}
н/о н/о +25.6 +21.6 79 +33 +33 очень
душно
1012.0 973.5
01 18.04 З 1
{3}
н/о н/о +24.2 +20.3 79 +30 +30 очень
душно
1012.9 974.2
02 18.04 ЮЗ 1
{2}
н/о н/о +23.8 +20.4 81 +29 +29 душно 1012.8 974.1
03 18.04 штиль 0
{1}
н/о н/о +23.8 +21.1 85 +30 +30 очень
душно
1012.6 973.9
04 18.04 ЮЗ 1
{1}
н/о н/о +24.0 +21.0 83 +30 +30 очень
душно
1012.0 973.3
05 18.04 ЮЗ 1
{1}
н/о н/о +23.7 +21.2 86 +30 +30 очень
душно
1011.8 973.1
06 18.04 штиль 0
{1}
н/о н/о +23.8 +21.3 86 +30 +30 очень
душно
1011.4 972.7
07 18.04 штиль 0
{2}
н/о н/о +23.7 +21.3 86 +30 +30 очень
душно
1011.0 972.3
08 18.04 ЮЗ 1
{1}
н/о н/о +23.4 +21.2 87 +31 +31 очень
душно
1010.8 972.1
09 18.04 штиль 0
{1}
н/о н/о +23.4 +21.4 89 +32 +32 очень
душно
1011.0 972.3
10 18.04 штиль 0
{1}
н/о н/о +24.3 +22.1 88 +32 +32 очень
душно
1011.7 973.1
11 18.04 ЮЗ 1
{1}
н/о н/о +25.1 +22.0 83 +32 +32 очень
душно
1012.0 973.5
12 18.04 штиль 0
{2}
н/о н/о +26.3 +20.9 72 +33 +33 очень
душно
1012.0 973.6
13 18.04 З 1
{2}
н/о н/о +27.9 +21.1 67 +35 +35 очень
душно
1011.7 973.5
14 18.04 СЗ 1
{2}
н/о н/о +28.8 +20.7 62 +36 +36 очень
душно
1010.9 972.9
15 18.04 ЮЗ 1
{2}
н/о н/о +29.2 +20.7 60 +36 +36 очень
душно
1009.9 971.9
16 18.04 ЮЗ 1
{2}
н/о н/о +29.6 +20.8 59 +37 +37 очень
душно
1008.9 971.0
17 18.04 ЮЗ 1
{2}
н/о н/о +30.5 +21.3 58 +38 +38 очень
душно
1007.7 970.0
18 18.04 З 2
{3}
н/о н/о +30.0 +20.5 57 +37 +37 очень
душно
1007.3 969.5
19 18.04 З 2
{3}
н/о н/о +30.6 +21.2 57 +38 +38 очень
душно
1007.0 969.3
20 18.04 З 2
{3}
н/о н/о +29.4 +20.1 57 +36 +36 очень
душно
1007.5 969.7
21 18.04 штиль 0
{3}
н/о н/о +27.2 +20.6 67 +34 +34 очень
душно
1008.6 970.4
22 18.04 СЗ 1
{1}
н/о н/о +25.7 +21.3 77 +33 +33 очень
душно
1009.3 970.9
23 18.04 штиль 0
{1}
н/о н/о +25.1 +21.5 80 +32 +32 очень
душно
1010.3 971.8
00 19.04 штиль 0
{1}
н/о н/о +23.5 +21.0 86 +30 +30 очень
душно
1011.3 972.6
01 19.04 штиль 0
{1}
н/о н/о +23.5 +21.3 87 +30 +30 очень
душно
1012.1 973.3
02 19.04 штиль 0
{1}
н/о н/о +22.7 +20.6 88 +30 +30 очень
душно
1012.6 973.7
03 19.04 ЮЗ 1
{1}
н/о н/о +22.4 +20.4 88 +29 +29 очень
душно
1012.4 973.5
04 19.04 ЮЗ 1
{2}
н/о н/о +22.9 +21.0 89 +30 +30 очень
душно
1011.5 972.7
05 19.04 ЮЗ 1
{1}
н/о н/о +22.5 +20.6 89 +29 +29 очень
душно
1011.6 972.7
06 19.04 штиль 0
{1}
н/о н/о +23.2 +21.3 89 +31 +31 очень
душно
1011.5 972.7
07 19.04 штиль 0
{1}
н/о н/о +23.4 +21.4 89 +32 +32 очень
душно
1011.3 972.6
08 19.04 ЮЗ 1
{1}
н/о н/о +23.3 +21.4 89 +31 +31 очень
душно
1011.1 972.4
09 19.04 ЮЗ 1
{1}
н/о н/о +23.3 +21.4 89 +31 +31 очень
душно
1011.7 972.9
10 19.04 ЮЗ 1
{1}
н/о н/о +23.6 +21.6 89 +30 +30 очень
душно
1012.9 974.1
11 19.04 ЮЗ 1
{1}
н/о н/о +24.3 +22.1 88 +32 +32 очень
душно
1013.4 974.7
12 19.04 штиль 0
{2}
н/о н/о +26.3 +21.5 75 +34 +34 очень
душно
1013.2 974.8
13 19.04 ЮЗ 1
{2}
н/о н/о +27.2 +19.9 64 +33 +33 очень
душно
1012.7 974.4
14 19.04 Ю 1
{2}
н/о н/о +28.8 +20.3 60 +35 +35 очень
душно
1011.7 973.6
15 19.04 Ю 2
{3}
н/о н/о +29.7 +19.2 53 +35 +35 очень
душно
1010.8 972.9
16 19.04 Ю 1
{3}
н/о н/о +30.9 +19.9 52 +37 +37 очень
душно
1009.5 971.8
17 19.04 ЮВ 2
{3}
н/о н/о +31.2 +19.3 49 +37 +37 очень
душно
1008.9 971.2
18 19.04 ЮВ 2
{3}
н/о н/о +31.5 +18.6 46 +36 +36 очень
душно
1008.1 970.5
19 19.04 В 1
{3}
н/о н/о +31.3 +18.9 48 +37 +37 очень
душно
1008.3 970.7
20 19.04 ЮВ 2
{3}
н/о н/о +30.2 +19.5 53 +36 +36 очень
душно
1008.7 970.9
21 19.04 штиль 0
{3}
н/о н/о +27.7 +20.0 63 +34 +34 очень
душно
1009.4 971.3
22 19.04 штиль 0
{1}
н/о н/о +25.6 +20.3 73 +32 +32 очень
душно
1010.0 971.6
23 19.04 штиль 0
{1}
н/о н/о +24.7 +20.6 78 +31 +31 очень
душно
1011.0 972.4
01 20.04 штиль 0
{1}
н/о н/о +23.1 +20.3 84 +30 +30 очень
душно
1012.4 973.6
02 20.04 штиль 0
{1}
н/о н/о +22.3 +19.9 86 +28 +28 душно 1012.8 973.9
03 20.04 ЮЗ 1
{1}
н/о н/о +22.2 +19.9 87 +28 +28 душно 1012.3 973.4
04 20.04 штиль 0
{1}
н/о н/о +23.3 +21.1 87 +31 +31 очень
душно
1011.8 973.0
05 20.04 ЮВ 1
{2}
н/о н/о +24.0 +21.7 87 +31 +31 очень
душно
1011.4 972.7
06 20.04 ЮВ 2
{3}
н/о н/о +23.9 +21.8 88 +31 +31 очень
душно
1011.5 972.8
07 20.04 ЮВ 1
{2}
н/о н/о +23.8 +21.5 87 +30 +30 очень
душно
1011.2 972.5
08 20.04 ЮВ 1
{2}
н/о н/о +23.5 +21.1 86 +30 +30 очень
душно
1011.8 973.1
09 20.04 Ю 1
{1}
н/о н/о +23.5 +21.0 86 +30 +30 очень
душно
1012.8 974.0
10 20.04 ЮВ 1
{2}
н/о н/о +24.1 +21.3 84 +30 +30 очень
душно
1013.4 974.7
11 20.04 В 1
{2}
н/о н/о +25.2 +20.8 77 +32 +32 очень
душно
1013.7 975.1
12 20.04 ЮВ 1
{2}
н/о н/о +26.2 +20.4 70 +32 +32 очень
душно
1014.4 975.9
13 20.04 Ю 1
{2}
н/о н/о +26.8 +19.7 65 +33 +33 очень
душно
1014.4 976.0
14 20.04 ЮВ 2
{3}
н/о н/о +27.9 +20.1 63 +34 +34 очень
душно
1013.6 975.3
15 20.04 ЮВ 2
{3}
н/о н/о +29.6 +20.0 56 +36 +36 очень
душно
1012.3 974.3
16 20.04 ЮВ 2
{3}
н/о н/о +29.0 +19.3 56 +35 +35 очень
душно
1011.2 973.2
17 20.04 ЮВ 2
{3}
н/о н/о +29.6 +17.9 49 +34 +34 очень
душно
1010.2 972.3
18 20.04 ЮВ 2
{3}
н/о н/о +30.0 +18.5 50 +35 +35 очень
душно
1009.3 971.5
19 20.04 ЮВ 2
{3}
н/о н/о +30.5 +18.4 48 +35 +35 очень
душно
1009.3 971.5
20 20.04 В 1
{3}
н/о н/о +29.5 +17.6 49 +34 +34 очень
душно
1009.4 971.5
21 20.04 штиль 0
{2}
н/о н/о +26.7 +18.9 62 +32 +32 очень
душно
1009.8 971.5
22 20.04 штиль 0
{1}
н/о н/о +24.1 +18.7 72 +29 +29 душно 1010.8 972.2
23 20.04 штиль 0 н/о н/о +23.3 +19.2 78 +30 +30 очень
душно
1012.0 973.2
00 21.04 ЮВ 1
{3}
н/о н/о +25.0 +19.5 72 +30 +30 душно 1012.7 974.1
01 21.04 В 1
{2}
н/о н/о +24.5 +19.4 73 +30 +30 очень
душно
1013.0 974.3
02 21.04 штиль 0
{2}
н/о н/о +22.9 +19.1 79 +29 +29 очень
душно
1013.2 974.3
03 21.04 ЮЗ 1
{1}
н/о н/о +21.9 +19.3 85 +27 +27 душно 1013.4 974.4
04 21.04 штиль 0
{1}
н/о н/о +21.1 +18.7 86 +25 +25 комфорт 1013.0 973.9
05 21.04 ЮЗ 1
{1}
н/о н/о +21.2 +19.0 87 +26 +26 душно 1012.5 973.4
06 21.04 ЮЗ 1
{1}
н/о н/о +21.1 +19.1 88 +25 +25 комфорт 1012.6 973.5
07 21.04 штиль 0
{1}
н/о н/о +20.4 +18.5 89 +24 +24 комфорт 1012.6 973.4
08 21.04 штиль 0
{1}
н/о н/о +20.0 +18.3 90 +23 +23 комфорт 1012.8 973.6
09 21.04 ЮЗ 1
{1}
н/о н/о +19.4 +17.8 90 +23 +23 комфорт 1013.4 974.1
10 21.04 штиль 0
{1}
н/о н/о +22.0 +20.2 90 +28 +28 душно 1013.5 974.5
11 21.04 ЮЗ 1
{1}
н/о н/о +24.6 +21.4 82 +31 +31 очень
душно
1013.8 975.1
12 21.04 В 1
{2}
н/о н/о +26.2 +21.3 74 +33 +33 очень
душно
1014.0 975.5
13 21.04 ЮВ 1
{2}
н/о н/о +26.8 +21.0 71 +34 +34 очень
душно
1013.5 975.1
14 21.04 В 1
{3}
н/о н/о +25.5 +21.2 77 +32 +32 очень
душно
1013.1 974.6 0.2
15 21.04 В 1
{3}
н/о н/о +27.3 +20.3 66 +34 +34 очень
душно
1011.8 973.5
16 21.04 ЮВ 1
{3}
н/о н/о +28.7 +21.4 65 +37 +37 очень
душно
1010.3 972.3
17 21.04 З 1
{2}
н/о н/о +30.0 +21.0 59 +38 +38 очень
душно
1009.1 971.3
18 21.04 Ю 1
{3}
н/о н/о +29.5 +20.8 60 +37 +37 очень
душно
1008.4 970.5
19 21.04 Ю 1
{3}
н/о н/о +29.3 +20.7 60 +36 +36 очень
душно
1008.4 970.5
20 21.04 штиль 0
{2}
н/о н/о +29.7 +20.2 57 +36 +36 очень
душно
1008.5 970.7
21 21.04 штиль 0
{1}
н/о н/о +26.4 +20.4 70 +33 +33 очень
душно
1009.4 971.1
22 21.04 СВ 2
{6}
н/о н/о +25.6 +20.6 74 +32 +32 очень
душно
1010.3 971.9
23 21.04 ЮВ 1
{6}
н/о н/о +25.5 +22.1 81 +33 +33 очень
душно
1011.3 972.8 2
00 22.04 ЮВ 1
{2}
н/о н/о +25.3 +22.0 82 +33 +33 очень
душно
1012.1 973.6
01 22.04 В 1
{3}
н/о н/о +25.2 +21.8 81 +32 +32 очень
душно
1012.7 974.1
02 22.04 ЮВ 3
{4}
н/о н/о +24.9 +21.5 81 +32 +32 очень
душно
1013.1 974.5
03 22.04 ЮВ 2
{4}
н/о н/о +24.7 +21.6 83 +32 +32 очень
душно
1012.7 974.1
04 22.04 ЮВ 2
{3}
н/о н/о +24.3 +21.5 84 +31 +31 очень
душно
1012.5 973.8
05 22.04 ЮВ 1
{3}
н/о н/о +23.7 +21.3 86 +30 +30 очень
душно
1012.2 973.5
06 22.04 В 1
{2}
н/о н/о +23.4 +21.2 87 +31 +31 очень
душно
1012.2 973.4
07 22.04 штиль 0
{1}
н/о н/о +23.4 +21.4 89 +32 +32 очень
душно
1012.3 973.5
08 22.04 штиль 0
{1}
н/о н/о +23.3 +21.4 89 +31 +31 очень
душно
1012.3 973.5
09 22.04 штиль 0
{1}
н/о н/о +23.1 +21.2 89 +31 +31 очень
душно
1012.7 973.9
10 22.04 В 1
{1}
н/о н/о +23.7 +21.9 90 +31 +31 очень
душно
1012.9 974.1
11 22.04 В 2
{3}
н/о н/о +25.6 +21.6 79 +33 +33 очень
душно
1012.8 974.3
12 22.04 В 2
{3}
н/о н/о +26.0 +21.1 74 +33 +33 очень
душно
1013.5 975.0
13 22.04 ЮВ 2
{3}
н/о н/о +27.7 +21.0 67 +35 +35 очень
душно
1013.1 974.8
14 22.04 В 2
{4}
н/о н/о +28.3 +21.0 65 +36 +36 очень
душно
1012.1 974.0
15 22.04 В 3
{5}
н/о н/о +29.7 +19.5 54 +35 +35 очень
душно
1011.3 973.4
16 22.04 В 2
{5}
н/о н/о +30.1 +18.6 50 +35 +35 очень
душно
1010.6 972.7
17 22.04 ЮВ 3
{5}
н/о н/о +31.5 +19.0 47 +37 +37 очень
душно
1009.5 971.8
18 22.04 В 3
{4}
н/о н/о +31.7 +17.2 42 +35 +35 очень
душно
1008.5 970.9
19 22.04 ЮВ 3
{5}
н/о н/о +31.2 +16.5 41 +34 +34 душно 1008.4 970.7
20 22.04 ЮВ 2
{4}
н/о н/о +30.1 +16.4 44 +33 +33 душно 1008.9 971.1
21 22.04 ЮВ 2
{4}
н/о н/о +27.8 +15.6 47 +31 +31 душно 1009.7 971.6
22 22.04 ЮВ 2
{4}
н/о н/о +26.4 +17.3 57 +30 +30 душно 1010.5 972.2
23 22.04 ЮВ 2
{4}
н/о н/о +24.8 +17.5 64 +29 +29 душно 1011.8 973.2
00 23.04 ЮВ 1
{2}
н/о н/о +23.8 +18.1 70 +28 +28 душно 1013.2 974.4

 

Местоположение метеостанции Макажуба (Баия, Бразилия): широта -12.12 долгота -40.35 высота над уровнем моря 382 м.

В архиве по умолчанию представлена погода в Макажубе за последнюю неделю. Архивные данные за месяц целиком и за предыдущие месяцы, начиная с января 2011 года, Вы можете получить, выбрав интересующий диапазон дат из раскрывающегося списка и нажав кнопку "Ввод!".


*Определитесь, кто Вы:
робот инопланетянин человек

Внимание! Время в таблицах - всемирное. Для получения местного времени необходимо прибавить поправку, которая равна -3 ч.

Смотрите также архив погоды в соседних городах и на ближайших метеорологических станциях:

Погода в Итаберабе (Баия, Бразилия) (45 км)
Погода в Жакобине (Баия, Бразилия) (103 км)
Погода в Жакобине (Баия, Бразилия) (105 км)
Погода в Ленсойсе (Баия, Бразилия) (122 км)
Погода в Ленсойсе (Баия, Бразилия) (123 км)
Погода в Амаргозе (Баия, Бразилия) (128 км)
Погода в Крус-даз-Алмасе (Баия, Бразилия) (144 км)
Погода в Кеймадасе (Баия, Бразилия) (150 км)
Погода в Фейра-ди-Сантане (Баия, Бразилия) (150 км)
Погода в Серринье (Баия, Бразилия) (153 км)

Пояснения к столбцам:

Ветер - указаны скорость ветра в м/с - средняя за 10 мин, порывы в срок и между сроками (в фигурных скобках) и направление, откуда дует ветер: С - северный, СВ - северо-восточный, В - восточный, ЮВ - юго-восточный, Ю - южный, ЮЗ - юго-западный, З - западный, СЗ - северо-западный.
Видимость - горизонтальная дальность видимости в метрах или километрах. При видимости от 1 до 10 км при отсутствии осадков обычно наблюдается дымка, при ухудшении видимости до 1 км и менее - туман. В сухую погоду видимость может ухудшаться дымом, пылью или мглою.
Явления - указаны атмосферные явления, наблюдавшиеся в срок или в последний час перед сроком; фигурными скобками обозначены явления, наблюдавшиеся между сроками (за 1-3 часа до срока); квадратными скобками обозначены град или гололедные отложения с указанием их диаметра в мм.
Облачность - указаны через наклонную черту общая и нижняя облачность в баллах и высота нижней границы облаков в метрах; квадратными скобками обозначены формы облаков: Ci - перистые, Cs - перисто-слоистые, Cc - перисто-кучевые, Ac - высококучевые, As - высокослоистые, Sc - слоисто-кучевые, Ns - слоисто-дождевые, Cu - кучевые, Cb - кучево-дождевые. Подробнее классификацию облаков см. в Атласе облаков (PDF).
T - Температура воздуха - температура, измеренная на высоте 2 м над землей.
Td - Температура точки росы - температура, при понижении до которой содержащийся в воздухе водяной пар достигнет насыщения.
f - Относительная влажность воздуха - влажноcть воздуха, измеренная на высоте 2 м над землей.
Te - Эффективная температура - температура, которую ощущает одетый по сезону человек в тени. Характеристика душности погоды. При расчете учитывается влияние влажности воздуха и скорости ветра на теплоощущения человека.
Tes - Эффективная температура на солнце - температура, которую ощущает человек, с поправкой на солнечный нагрев. Характеристика знойности погоды. Зависит от высоты солнца над горизонтом, облачности и скорости ветра. Ночью, в пасмурную погоду, а также при ветре 12 м/с и более поправка равна нулю.
P - Атмосферное давление - приведенное к уровню моря атмосферное давление.
Po - Атмосферное давление - измеренное на уровне метеостанции атмосферное давление.
Tmin - Минимальная температура - минимум температуры воздуха на высоте 2 м над землей.
Tmax - Максимальная температура - максимум температуры воздуха на высоте 2 м над землей.
R - Количество осадков - Количество выпавших осадков за период времени, мм. При наведении курсора мыши на число - период времени, за который выпало указанное количество осадков.
R24 - Количество осадков - Количество выпавших осадков за 24 часа, мм.
S - Снежный покров - Высота снежного покрова, см. При наведении курсора мыши на число - состояние снежного покрова и степень покрытия местности в баллах.